• In Czech Republic
  • List of Countries
  • For 7 days
  • Water Temperature
  • Satellite Maps
  • Weather Map
  • Weather Widgets
  • user-avatar
    Login

    Hourly Weather Bolshoy Kozhvozh

    Today, 20 April, Friday

    Time Temperature Precipitation Wind Pressure Humidity
    00:00 +4°C° 0.7 mm 3 mps 742 mmHg 97%
    01:00 +4°C° 0.7 mm 3 mps 742 mmHg 96%
    02:00 +4°C° 0.7 mm 4 mps 742 mmHg 96%
    03:00 +3°C° 0 mm 3 mps 743 mmHg 96%
    04:00 +3°C° 0.4 mm 4 mps 744 mmHg 94%
    05:00 +3°C° 0.4 mm 4 mps 744 mmHg 93%
    06:00 +2°C° 0.4 mm 5 mps 744 mmHg 92%
    07:00 +2°C° 0 mm 5 mps 745 mmHg 85%
    08:00 +3°C° 0 mm 6 mps 745 mmHg 78%
    09:00 +4°C° 0 mm 6 mps 745 mmHg 70%
    10:00 +4°C° 0 mm 6 mps 746 mmHg 67%
    11:00 +4°C° 0 mm 6 mps 746 mmHg 64%
    12:00 +4°C° 0 mm 6 mps 747 mmHg 61%
    13:00 +4°C° 0 mm 6 mps 747 mmHg 61%
    14:00 +3°C° 0 mm 6 mps 747 mmHg 60%
    15:00 +3°C° 0 mm 6 mps 748 mmHg 59%
    16:00 +2°C° 0 mm 5 mps 748 mmHg 60%
    17:00 +1°C° 0 mm 5 mps 748 mmHg 60%
    18:00 +1°C° 0 mm 5 mps 749 mmHg 61%
    19:00 0°C° 0 mm 4 mps 749 mmHg 62%
    20:00 -1°C° 0 mm 4 mps 749 mmHg 64%
    21:00 -1°C° 0 mm 3 mps 750 mmHg 66%
    22:00 -1°C° 0 mm 3 mps 750 mmHg 67%
    23:00 -1°C° 0 mm 2 mps 750 mmHg 67%

    Tomorrow, 21 April, Saturday

    Time Temperature Precipitation Wind Pressure Humidity
    00:00 -2°C° 0 mm 2 mps 750 mmHg 68%
    01:00 -2°C° 0 mm 2 mps 749 mmHg 71%
    02:00 -1°C° 0 mm 1 mps 749 mmHg 74%
    03:00 -2°C° 0 mm 1 mps 749 mmHg 77%
    04:00 -1°C° 0 mm 1 mps 749 mmHg 74%
    05:00 -1°C° 0 mm 1 mps 749 mmHg 72%
    06:00 -1°C° 0 mm 1 mps 749 mmHg 69%
    07:00 +1°C° 0 mm 1 mps 748 mmHg 62%
    08:00 +2°C° 0 mm 1 mps 748 mmHg 55%
    09:00 +2°C° 0 mm 2 mps 748 mmHg 47%
    10:00 +3°C° 0 mm 2 mps 747 mmHg 46%
    11:00 +3°C° 0 mm 3 mps 746 mmHg 45%
    12:00 +4°C° 0 mm 4 mps 746 mmHg 43%
    13:00 +4°C° 0.1 mm 4 mps 745 mmHg 46%
    14:00 +4°C° 0.1 mm 4 mps 744 mmHg 50%
    15:00 +3°C° 0.1 mm 5 mps 743 mmHg 53%
    16:00 +2°C° 0.3 mm 5 mps 742 mmHg 57%
    17:00 +2°C° 0.3 mm 5 mps 741 mmHg 62%
    18:00 +1°C° 0.3 mm 5 mps 740 mmHg 66%
    19:00 +1°C° 0.3 mm 6 mps 739 mmHg 67%
    20:00 +2°C° 0.3 mm 7 mps 738 mmHg 68%
    21:00 +2°C° 0.3 mm 7 mps 737 mmHg 69%
    22:00 +2°C° 0.3 mm 7 mps 736 mmHg 74%
    23:00 +2°C° 0.3 mm 8 mps 734 mmHg 78%

    Day after tomorrow, 22 April, Sunday

    Time Temperature Precipitation Wind Pressure Humidity
    00:00 +2°C° 0.3 mm 8 mps 733 mmHg 83%
    01:00 +4°C° 1.1 mm 8 mps 732 mmHg 84%
    02:00 +4°C° 1.1 mm 8 mps 731 mmHg 86%
    03:00 +4°C° 1.1 mm 8 mps 730 mmHg 87%
    04:00 +4°C° 1 mm 7 mps 729 mmHg 89%
    05:00 +5°C° 1 mm 7 mps 729 mmHg 91%
    06:00 +5°C° 1 mm 6 mps 728 mmHg 93%
    07:00 +6°C° 0.3 mm 5 mps 728 mmHg 89%
    08:00 +6°C° 0.3 mm 5 mps 729 mmHg 85%
    09:00 +6°C° 0.3 mm 5 mps 729 mmHg 80%
    10:00 +7°C° 0.1 mm 5 mps 729 mmHg 75%
    11:00 +8°C° 0.1 mm 6 mps 729 mmHg 69%
    12:00 +8°C° 0.1 mm 6 mps 729 mmHg 64%
    13:00 +8°C° 0.3 mm 6 mps 729 mmHg 64%
    14:00 +8°C° 0.3 mm 6 mps 730 mmHg 65%
    15:00 +8°C° 0.3 mm 6 mps 730 mmHg 66%
    16:00 +7°C° 0.1 mm 6 mps 730 mmHg 68%
    17:00 +6°C° 0.1 mm 5 mps 731 mmHg 71%
    18:00 +5°C° 0.1 mm 4 mps 731 mmHg 74%
    19:00 +4°C° 0.1 mm 4 mps 731 mmHg 77%
    20:00 +3°C° 0.1 mm 4 mps 732 mmHg 80%
    21:00 +1°C° 0.1 mm 4 mps 732 mmHg 83%
    22:00 0°C° 0 mm 4 mps 732 mmHg 84%
    23:00 0°C° 0 mm 4 mps 732 mmHg 86%

    23 April, Monday

    Time Temperature Precipitation Wind Pressure Humidity
    00:00 0°C° 0 mm 3 mps 733 mmHg 87%
    01:00 -1°C° 0.2 mm 4 mps 733 mmHg 87%
    02:00 -1°C° 0.2 mm 4 mps 733 mmHg 88%
    03:00 -1°C° 0.2 mm 4 mps 733 mmHg 88%
    04:00 -1°C° 0.3 mm 4 mps 734 mmHg 89%
    05:00 -1°C° 0.3 mm 4 mps 734 mmHg 90%
    06:00 0°C° 0.3 mm 4 mps 734 mmHg 90%
    07:00 0°C° 0.2 mm 4 mps 735 mmHg 88%
    08:00 +1°C° 0.2 mm 4 mps 735 mmHg 86%
    09:00 +1°C° 0.2 mm 4 mps 736 mmHg 85%
    10:00 +1°C° 0.2 mm 4 mps 736 mmHg 83%
    11:00 +1°C° 0.2 mm 5 mps 737 mmHg 81%
    12:00 +1°C° 0.2 mm 5 mps 737 mmHg 80%
    13:00 +1°C° 0.1 mm 5 mps 738 mmHg 78%
    14:00 +1°C° 0.1 mm 5 mps 738 mmHg 77%
    15:00 +1°C° 0.1 mm 5 mps 739 mmHg 76%
    16:00 +1°C° 0.1 mm 5 mps 740 mmHg 78%
    17:00 0°C° 0.1 mm 5 mps 740 mmHg 80%
    18:00 0°C° 0.1 mm 5 mps 741 mmHg 82%
    19:00 0°C° 0.1 mm 5 mps 741 mmHg 84%
    20:00 -1°C° 0.1 mm 5 mps 741 mmHg 86%
    21:00 -1°C° 0.1 mm 4 mps 742 mmHg 87%
    22:00 -1°C° 0.1 mm 4 mps 742 mmHg 88%
    23:00 -1°C° 0.1 mm 4 mps 742 mmHg 88%

    24 April, Tuesday

    Time Temperature Precipitation Wind Pressure Humidity
    00:00 -2°C° 0.1 mm 4 mps 743 mmHg 89%
    01:00 -2°C° 0 mm 4 mps 743 mmHg 89%
    02:00 -2°C° 0 mm 4 mps 743 mmHg 88%
    03:00 -2°C° 0 mm 4 mps 744 mmHg 88%
    04:00 -2°C° 0 mm 5 mps 744 mmHg 87%
    05:00 -2°C° 0 mm 5 mps 745 mmHg 86%
    06:00 -2°C° 0 mm 5 mps 745 mmHg 85%
    07:00 -2°C° 0 mm 5 mps 745 mmHg 83%
    08:00 -2°C° 0 mm 5 mps 746 mmHg 81%
    09:00 -2°C° 0 mm 5 mps 746 mmHg 78%
    10:00 -1°C° 0 mm 5 mps 747 mmHg 76%
    11:00 0°C° 0 mm 5 mps 747 mmHg 74%
    12:00 0°C° 0 mm 5 mps 748 mmHg 72%
    13:00 +1°C° 0 mm 5 mps 748 mmHg 70%
    14:00 +1°C° 0 mm 5 mps 748 mmHg 69%
    15:00 +1°C° 0 mm 5 mps 749 mmHg 67%
    16:00 +1°C° 0 mm 4 mps 749 mmHg 69%
    17:00 0°C° 0 mm 4 mps 749 mmHg 70%
    18:00 0°C° 0 mm 4 mps 750 mmHg 71%
    19:00 0°C° 0 mm 3 mps 750 mmHg 74%
    20:00 0°C° 0 mm 3 mps 750 mmHg 76%
    21:00 -1°C° 0 mm 2 mps 751 mmHg 79%
    22:00 -1°C° 0 mm 2 mps 751 mmHg 80%
    23:00 -2°C° 0 mm 2 mps 751 mmHg 81%

    25 April, Wednesday

    Time Temperature Precipitation Wind Pressure Humidity
    00:00 -2°C° 0 mm 2 mps 751 mmHg 82%
    01:00 -3°C° 0 mm 2 mps 752 mmHg 83%
    02:00 -1°C° 0 mm 1 mps 752 mmHg 84%
    03:00 -2°C° 0 mm 1 mps 752 mmHg 86%
    04:00 -1°C° 0 mm 1 mps 752 mmHg 82%
    05:00 -1°C° 0 mm 1 mps 752 mmHg 79%
    06:00 0°C° 0 mm 1 mps 753 mmHg 75%
    07:00 +2°C° 0 mm 1 mps 753 mmHg 68%
    08:00 +3°C° 0 mm 1 mps 753 mmHg 60%
    09:00 +5°C° 0 mm 1 mps 753 mmHg 53%
    10:00 +5°C° 0 mm 1 mps 753 mmHg 50%
    11:00 +5°C° 0 mm 2 mps 753 mmHg 48%
    12:00 +6°C° 0 mm 2 mps 753 mmHg 46%
    13:00 +7°C° 0 mm 2 mps 753 mmHg 45%
    14:00 +8°C° 0 mm 2 mps 752 mmHg 45%
    15:00 +8°C° 0 mm 3 mps 752 mmHg 44%
    16:00 +8°C° 0 mm 2 mps 752 mmHg 49%
    17:00 +7°C° 0 mm 2 mps 752 mmHg 54%
    18:00 +7°C° 0 mm 2 mps 752 mmHg 58%
    19:00 +4°C° 0 mm 3 mps 752 mmHg 63%
    20:00 +3°C° 0 mm 3 mps 752 mmHg 67%
    21:00 +1°C° 0 mm 4 mps 752 mmHg 71%
    22:00 0°C° 0 mm 4 mps 751 mmHg 72%
    23:00 0°C° 0 mm 4 mps 751 mmHg 73%
    Show more